SJX841 RJFF-RCTP

Flight info

Callsign SJX841
Flight time 2h 6m
Altitude 40000
Route YAMGA HKC A1 DRAKE DRAKE1A
Aircraft A339/H-SADE1E2E3GHIJ3J5M1P2RWXY/LB2D1

Departure

Time 2026-05-06 05:03
Airport Fukuoka Airport (RJFF)

Arrival

Time 2026-05-06 07:10
Airport Taiwan Taoyuan International Airport (RCTP)
Time Latitude Longitude Altitude Speed Heading
2026-05-06 04:38 33.59790 130.44693 53 ft 0 kts 60°
2026-05-06 04:50 33.59789 130.44691 53 ft 1 kts 60°
2026-05-06 04:50 33.59782 130.44676 53 ft 2 kts 59°
2026-05-06 04:51 33.59774 130.44661 53 ft 2 kts 60°
2026-05-06 04:51 33.59767 130.44644 53 ft 2 kts 60°
2026-05-06 04:51 33.59760 130.44629 53 ft 2 kts 73°
2026-05-06 04:51 33.59759 130.44612 53 ft 2 kts 106°
2026-05-06 04:52 33.59766 130.44595 53 ft 2 kts 135°
2026-05-06 04:52 33.59772 130.44589 53 ft 0 kts 151°
2026-05-06 04:52 33.59776 130.44586 53 ft 0 kts 150°
2026-05-06 04:56 33.59774 130.44588 53 ft 1 kts 150°
2026-05-06 04:56 33.59752 130.44600 53 ft 5 kts 167°
2026-05-06 04:56 33.59705 130.44580 53 ft 8 kts 209°
2026-05-06 04:56 33.59637 130.44583 53 ft 11 kts 152°
2026-05-06 04:57 33.59555 130.44640 53 ft 14 kts 150°
2026-05-06 04:57 33.59461 130.44704 53 ft 16 kts 150°
2026-05-06 04:57 33.59361 130.44772 53 ft 16 kts 150°
2026-05-06 04:57 33.59259 130.44841 53 ft 17 kts 150°
2026-05-06 04:58 33.59155 130.44913 53 ft 17 kts 150°
2026-05-06 04:58 33.59047 130.44986 53 ft 17 kts 150°
2026-05-06 04:58 33.58938 130.45061 53 ft 18 kts 150°
2026-05-06 04:58 33.58828 130.45137 53 ft 18 kts 150°
2026-05-06 04:59 33.58716 130.45213 53 ft 18 kts 150°
2026-05-06 04:59 33.58602 130.45291 53 ft 18 kts 150°
2026-05-06 04:59 33.58488 130.45369 53 ft 18 kts 150°
2026-05-06 04:59 33.58373 130.45447 53 ft 19 kts 150°
2026-05-06 05:00 33.58257 130.45526 53 ft 19 kts 150°
2026-05-06 05:00 33.58141 130.45605 53 ft 19 kts 150°
2026-05-06 05:00 33.58024 130.45685 53 ft 19 kts 150°
2026-05-06 05:00 33.57907 130.45766 53 ft 19 kts 150°
2026-05-06 05:01 33.57790 130.45845 53 ft 19 kts 150°
2026-05-06 05:01 33.57674 130.45924 53 ft 17 kts 149°
2026-05-06 05:01 33.57575 130.45938 53 ft 14 kts 215°
2026-05-06 05:01 33.57521 130.45840 53 ft 12 kts 241°
2026-05-06 05:02 33.57529 130.45793 53 ft 7 kts 324°
2026-05-06 05:02 33.57574 130.45763 53 ft 10 kts 330°
2026-05-06 05:02 33.57779 130.45624 53 ft 66 kts 330°
2026-05-06 05:02 33.58369 130.45221 53 ft 126 kts 330°
2026-05-06 05:03 33.59272 130.44606 163 ft 163 kts 331°
2026-05-06 05:03 33.60241 130.43941 744 ft 162 kts 329°
2026-05-06 05:03 33.61234 130.43254 1282 ft 169 kts 328°
2026-05-06 05:03 33.62237 130.42567 1916 ft 167 kts 329°
2026-05-06 05:04 33.63284 130.41852 2240 ft 180 kts 329°
2026-05-06 05:04 33.64462 130.41153 2535 ft 196 kts 347°
2026-05-06 05:04 33.65857 130.41229 2831 ft 211 kts 22°
2026-05-06 05:04 33.67044 130.42316 3125 ft 225 kts 58°
2026-05-06 05:05 33.67847 130.43977 3458 ft 241 kts 63°
2026-05-06 05:05 33.68656 130.45828 3800 ft 258 kts 68°
2026-05-06 05:05 33.68989 130.47975 4247 ft 269 kts 96°
2026-05-06 05:05 33.68444 130.50079 4967 ft 268 kts 123°
2026-05-06 05:06 33.67165 130.51668 5658 ft 269 kts 149°
2026-05-06 05:06 33.65530 130.52776 6329 ft 274 kts 152°
2026-05-06 05:06 33.63821 130.53821 7037 ft 276 kts 156°
2026-05-06 05:06 33.62057 130.54721 7729 ft 280 kts 159°
2026-05-06 05:07 33.60245 130.55618 8425 ft 283 kts 159°
2026-05-06 05:07 33.58432 130.56520 9105 ft 287 kts 159°
2026-05-06 05:07 33.56582 130.57446 9797 ft 291 kts 159°
2026-05-06 05:07 33.54713 130.58389 10449 ft 295 kts 159°
2026-05-06 05:08 33.52750 130.59372 10823 ft 312 kts 159°
2026-05-06 05:08 33.50716 130.60391 11144 ft 329 kts 159°
2026-05-06 05:08 33.48568 130.61469 11656 ft 339 kts 159°
2026-05-06 05:08 33.46364 130.62579 12342 ft 343 kts 159°
2026-05-06 05:09 33.44156 130.63629 13031 ft 346 kts 162°
2026-05-06 05:09 33.41867 130.64508 13691 ft 349 kts 166°
2026-05-06 05:09 33.39504 130.65314 14385 ft 353 kts 167°
2026-05-06 05:09 33.37143 130.66106 15057 ft 356 kts 168°
2026-05-06 05:10 33.34756 130.66904 15683 ft 361 kts 167°
2026-05-06 05:10 33.32314 130.67720 16355 ft 364 kts 168°
2026-05-06 05:10 33.29885 130.68539 16990 ft 368 kts 168°
2026-05-06 05:10 33.27393 130.69379 17647 ft 370 kts 168°
2026-05-06 05:11 33.24911 130.70213 18290 ft 374 kts 168°
2026-05-06 05:11 33.22398 130.71060 18940 ft 377 kts 168°
2026-05-06 05:11 33.19872 130.71913 19481 ft 382 kts 169°
2026-05-06 05:11 33.17308 130.72775 20065 ft 386 kts 169°
2026-05-06 05:12 33.14724 130.73642 20626 ft 390 kts 169°
2026-05-06 05:12 33.12096 130.74445 21191 ft 390 kts 174°
2026-05-06 05:12 33.09392 130.74841 21779 ft 388 kts 182°
2026-05-06 05:12 33.06709 130.74777 22310 ft 386 kts 190°
2026-05-06 05:13 33.04045 130.74472 22832 ft 388 kts 192°
2026-05-06 05:13 33.01342 130.74138 23373 ft 390 kts 192°
2026-05-06 05:13 32.98663 130.73801 24011 ft 388 kts 192°
2026-05-06 05:13 32.95992 130.73471 24660 ft 386 kts 192°
2026-05-06 05:14 32.93320 130.73140 25121 ft 389 kts 193°
2026-05-06 05:14 32.90610 130.72804 25733 ft 387 kts 193°
2026-05-06 05:14 32.87955 130.72481 26315 ft 386 kts 193°
2026-05-06 05:14 32.85303 130.72159 26946 ft 383 kts 193°
2026-05-06 05:15 32.82681 130.71838 27525 ft 380 kts 194°
2026-05-06 05:15 32.80046 130.71516 27928 ft 383 kts 193°
2026-05-06 05:15 32.77378 130.71188 28157 ft 389 kts 194°
2026-05-06 05:15 32.74649 130.70853 28556 ft 391 kts 193°
2026-05-06 05:16 32.71954 130.70522 29034 ft 390 kts 193°
2026-05-06 05:16 32.69269 130.70195 29608 ft 388 kts 193°
2026-05-06 05:16 32.66597 130.69871 30022 ft 389 kts 194°
2026-05-06 05:16 32.63876 130.69544 30359 ft 392 kts 193°
2026-05-06 05:17 32.61161 130.69214 30689 ft 394 kts 193°
2026-05-06 05:17 32.58439 130.68878 31085 ft 395 kts 192°
2026-05-06 05:17 32.55700 130.68550 31510 ft 395 kts 193°
2026-05-06 05:17 32.52976 130.68225 31930 ft 394 kts 193°
2026-05-06 05:18 32.50263 130.67897 32391 ft 393 kts 192°
2026-05-06 05:18 32.47565 130.67575 32953 ft 389 kts 192°
2026-05-06 05:18 32.44898 130.67258 33475 ft 386 kts 193°
2026-05-06 05:18 32.42240 130.66937 33927 ft 384 kts 193°
2026-05-06 05:19 32.39554 130.66615 34285 ft 384 kts 193°
2026-05-06 05:19 32.36902 130.66295 34600 ft 385 kts 193°
2026-05-06 05:19 32.34239 130.65973 34920 ft 386 kts 193°
2026-05-06 05:19 32.31580 130.65654 35273 ft 386 kts 193°
2026-05-06 05:20 32.28917 130.65337 35671 ft 385 kts 193°
2026-05-06 05:20 32.26249 130.65019 35962 ft 385 kts 193°
2026-05-06 05:20 32.23584 130.64697 36267 ft 385 kts 194°
2026-05-06 05:20 32.20914 130.64375 36568 ft 385 kts 193°
2026-05-06 05:21 32.18243 130.64059 36835 ft 386 kts 194°
2026-05-06 05:21 32.15579 130.63737 37062 ft 387 kts 194°
2026-05-06 05:21 32.12868 130.63414 37281 ft 388 kts 194°
2026-05-06 05:21 32.10197 130.63094 37601 ft 387 kts 194°
2026-05-06 05:22 32.07531 130.62775 37846 ft 387 kts 194°
2026-05-06 05:22 32.04835 130.62450 38117 ft 386 kts 194°
2026-05-06 05:22 32.02183 130.62135 38368 ft 386 kts 194°
2026-05-06 05:22 31.99489 130.61813 38540 ft 387 kts 194°
2026-05-06 05:23 31.96813 130.61491 38701 ft 388 kts 194°
2026-05-06 05:23 31.94119 130.61171 38820 ft 390 kts 193°
2026-05-06 05:23 31.88707 130.60521 39170 ft 392 kts 193°
2026-05-06 05:24 31.86002 130.60204 39363 ft 393 kts 193°
2026-05-06 05:24 31.83270 130.59883 39480 ft 395 kts 194°
2026-05-06 05:24 31.80538 130.59554 39641 ft 396 kts 193°
2026-05-06 05:24 31.77808 130.59064 39743 ft 393 kts 199°
2026-05-06 05:25 31.75182 130.58221 39886 ft 389 kts 205°
2026-05-06 05:25 31.72689 130.57074 40044 ft 386 kts 210°
2026-05-06 05:25 31.68065 130.53868 40096 ft 385 kts 220°
2026-05-06 05:26 31.64173 130.49629 40074 ft 382 kts 229°
2026-05-06 05:26 31.60867 130.44789 40077 ft 384 kts 232°
2026-05-06 05:27 31.57567 130.39842 40072 ft 384 kts 232°
2026-05-06 05:27 31.54282 130.34897 40072 ft 384 kts 232°
2026-05-06 05:28 31.51023 130.29979 40062 ft 386 kts 232°
2026-05-06 05:28 31.47739 130.25027 40055 ft 385 kts 231°
2026-05-06 05:29 31.44452 130.20082 40064 ft 386 kts 232°
2026-05-06 05:29 31.41158 130.15123 40061 ft 384 kts 231°
2026-05-06 05:30 31.37887 130.10204 40048 ft 385 kts 232°
2026-05-06 05:30 31.34613 130.05229 40050 ft 386 kts 232°
2026-05-06 05:31 31.31356 130.00279 40062 ft 386 kts 232°
2026-05-06 05:31 31.28086 129.95322 40053 ft 385 kts 232°
2026-05-06 05:32 31.24797 129.90402 40042 ft 385 kts 232°
2026-05-06 05:32 31.21502 129.85478 40050 ft 386 kts 232°
2026-05-06 05:33 31.18213 129.80556 40049 ft 385 kts 232°
2026-05-06 05:33 31.14923 129.75647 40046 ft 386 kts 231°
2026-05-06 05:34 31.11604 129.70692 40049 ft 387 kts 232°
2026-05-06 05:34 31.08307 129.65784 40041 ft 387 kts 232°
2026-05-06 05:35 31.04992 129.60855 40042 ft 387 kts 231°
2026-05-06 05:35 31.01667 129.55910 40044 ft 388 kts 231°
2026-05-06 05:36 30.98340 129.50981 40041 ft 388 kts 232°
2026-05-06 05:36 30.95023 129.46066 40045 ft 389 kts 232°
2026-05-06 05:37 30.91674 129.41101 40033 ft 391 kts 231°
2026-05-06 05:37 30.88311 129.36127 40049 ft 391 kts 231°
2026-05-06 05:38 30.84961 129.31180 40042 ft 391 kts 231°
2026-05-06 05:38 30.81576 129.26189 40029 ft 392 kts 231°
2026-05-06 05:39 30.78213 129.21236 40035 ft 393 kts 231°
2026-05-06 05:39 30.74875 129.16222 40035 ft 392 kts 232°
2026-05-06 05:40 30.71553 129.11144 40040 ft 395 kts 232°
2026-05-06 05:40 30.68220 129.06078 40035 ft 396 kts 232°
2026-05-06 05:41 30.64870 129.00992 40030 ft 397 kts 232°
2026-05-06 05:41 30.61515 128.95891 40030 ft 399 kts 232°
2026-05-06 05:42 30.58129 128.90758 40031 ft 401 kts 232°
2026-05-06 05:42 30.54742 128.85634 40039 ft 401 kts 232°
2026-05-06 05:43 30.51360 128.80516 40017 ft 402 kts 232°
2026-05-06 05:43 30.47965 128.75395 40025 ft 403 kts 232°
2026-05-06 05:44 30.44535 128.70233 40030 ft 404 kts 232°
2026-05-06 05:44 30.41118 128.65079 40035 ft 404 kts 232°
2026-05-06 05:45 30.37687 128.59927 40037 ft 405 kts 232°
2026-05-06 05:45 30.34261 128.54779 40035 ft 406 kts 232°
2026-05-06 05:46 30.30818 128.49614 40033 ft 406 kts 233°
2026-05-06 05:46 30.27351 128.44418 40034 ft 407 kts 232°
2026-05-06 05:47 30.23901 128.39264 40033 ft 407 kts 232°
2026-05-06 05:47 30.20435 128.34090 40039 ft 408 kts 232°
2026-05-06 05:48 30.16955 128.28894 40037 ft 408 kts 232°
2026-05-06 05:48 30.13474 128.23706 40036 ft 409 kts 232°
2026-05-06 05:49 30.10002 128.18539 40037 ft 410 kts 232°
2026-05-06 05:49 30.06525 128.13371 40039 ft 409 kts 232°
2026-05-06 05:50 30.03027 128.08180 40041 ft 410 kts 233°
2026-05-06 05:50 29.99518 128.02977 40040 ft 410 kts 233°
2026-05-06 05:51 29.96026 127.97804 40039 ft 411 kts 233°
2026-05-06 05:51 29.92515 127.92609 40030 ft 413 kts 233°
2026-05-06 05:52 29.88975 127.87376 40043 ft 414 kts 233°
2026-05-06 05:52 29.85393 127.82256 40042 ft 413 kts 231°
2026-05-06 05:53 29.81644 127.77211 40036 ft 416 kts 230°
2026-05-06 05:53 29.77888 127.72162 40038 ft 415 kts 230°
2026-05-06 05:54 29.74134 127.67131 40037 ft 416 kts 231°
2026-05-06 05:54 29.70368 127.62081 40035 ft 418 kts 230°
2026-05-06 05:55 29.66563 127.56988 40034 ft 419 kts 230°
2026-05-06 05:55 29.62768 127.51914 40031 ft 420 kts 230°
2026-05-06 05:56 29.58977 127.46844 40036 ft 421 kts 231°
2026-05-06 05:56 29.55320 127.41587 40031 ft 422 kts 232°
2026-05-06 05:57 29.51673 127.36315 40032 ft 424 kts 232°
2026-05-06 05:57 29.47999 127.31004 40027 ft 425 kts 232°
2026-05-06 05:58 29.44329 127.25708 40032 ft 426 kts 232°
2026-05-06 05:58 29.40655 127.20410 40031 ft 425 kts 232°
2026-05-06 05:59 29.36969 127.15098 40026 ft 425 kts 232°
2026-05-06 05:59 29.33277 127.09784 40029 ft 427 kts 232°
2026-05-06 06:00 29.29588 127.04484 40029 ft 427 kts 232°
2026-05-06 06:00 29.25890 126.99176 40025 ft 428 kts 232°
2026-05-06 06:01 29.22175 126.93857 40028 ft 428 kts 232°
2026-05-06 06:01 29.18463 126.88541 40022 ft 430 kts 232°
2026-05-06 06:02 29.14731 126.83205 40018 ft 431 kts 232°
2026-05-06 06:02 29.10985 126.77856 40027 ft 430 kts 232°
2026-05-06 06:03 29.07246 126.72523 40034 ft 431 kts 232°
2026-05-06 06:03 29.03509 126.67200 40037 ft 431 kts 232°
2026-05-06 06:04 28.99748 126.61849 40043 ft 431 kts 232°
2026-05-06 06:04 28.95988 126.56536 40032 ft 432 kts 231°
2026-05-06 06:05 28.92111 126.51310 40038 ft 432 kts 231°
2026-05-06 06:05 28.88224 126.46092 40038 ft 432 kts 231°
2026-05-06 06:06 28.84349 126.40880 40032 ft 434 kts 231°
2026-05-06 06:06 28.80460 126.35648 40029 ft 434 kts 231°
2026-05-06 06:07 28.76545 126.30387 40029 ft 435 kts 231°
2026-05-06 06:07 28.72640 126.25143 40028 ft 436 kts 231°
2026-05-06 06:08 28.68722 126.19888 40025 ft 437 kts 231°
2026-05-06 06:08 28.64797 126.14629 40028 ft 438 kts 231°
2026-05-06 06:09 28.60905 126.09278 40029 ft 439 kts 232°
2026-05-06 06:09 28.57094 126.03876 40020 ft 439 kts 233°
2026-05-06 06:10 28.53267 125.98466 40026 ft 440 kts 232°
2026-05-06 06:10 28.49411 125.93032 40026 ft 440 kts 233°
2026-05-06 06:11 28.45576 125.87642 40039 ft 440 kts 233°
2026-05-06 06:11 28.41736 125.82249 40034 ft 441 kts 233°
2026-05-06 06:12 28.37878 125.76836 40037 ft 441 kts 233°
2026-05-06 06:12 28.34020 125.71433 40033 ft 442 kts 233°
2026-05-06 06:13 28.30151 125.66022 40030 ft 443 kts 233°
2026-05-06 06:13 28.26266 125.60592 40025 ft 442 kts 233°
2026-05-06 06:14 28.22388 125.55187 40029 ft 444 kts 234°
2026-05-06 06:14 28.18513 125.49785 40025 ft 444 kts 234°
2026-05-06 06:15 28.14624 125.44370 40022 ft 445 kts 234°
2026-05-06 06:15 28.10701 125.38921 40021 ft 446 kts 234°
2026-05-06 06:16 28.06785 125.33485 40011 ft 446 kts 234°
2026-05-06 06:16 28.02886 125.28079 40006 ft 445 kts 234°
2026-05-06 06:17 27.98950 125.22627 40004 ft 447 kts 234°
2026-05-06 06:17 27.95043 125.17225 40010 ft 448 kts 234°
2026-05-06 06:18 27.91080 125.11751 40008 ft 448 kts 234°
2026-05-06 06:18 27.87139 125.06316 40007 ft 449 kts 234°
2026-05-06 06:19 27.83185 125.00868 40008 ft 449 kts 234°
2026-05-06 06:19 27.79238 124.95435 40010 ft 450 kts 234°
2026-05-06 06:20 27.75254 124.89963 40012 ft 451 kts 234°
2026-05-06 06:20 27.71285 124.84512 40002 ft 450 kts 235°
2026-05-06 06:21 27.67321 124.79076 40010 ft 451 kts 235°
2026-05-06 06:21 27.63340 124.73621 40014 ft 451 kts 235°
2026-05-06 06:22 27.59357 124.68179 40012 ft 451 kts 235°
2026-05-06 06:22 27.55373 124.62737 40012 ft 451 kts 235°
2026-05-06 06:23 27.51343 124.57236 40021 ft 452 kts 235°
2026-05-06 06:23 27.47329 124.51760 40006 ft 452 kts 236°
2026-05-06 06:24 27.43339 124.46324 40027 ft 453 kts 236°
2026-05-06 06:24 27.39314 124.40846 40015 ft 454 kts 236°
2026-05-06 06:25 27.35287 124.35375 40009 ft 456 kts 236°
2026-05-06 06:26 27.29205 124.27119 40019 ft 456 kts 236°
2026-05-06 06:26 27.25152 124.21629 40012 ft 457 kts 236°
2026-05-06 06:27 27.21085 124.16125 40016 ft 458 kts 236°
2026-05-06 06:27 27.17012 124.10617 40013 ft 458 kts 236°
2026-05-06 06:28 27.12966 124.05154 40008 ft 459 kts 236°
2026-05-06 06:28 27.08860 123.99620 40008 ft 459 kts 236°
2026-05-06 06:29 27.04752 123.94155 40025 ft 461 kts 236°
2026-05-06 06:29 27.00593 123.88644 39998 ft 460 kts 236°
2026-05-06 06:30 26.96457 123.83162 40022 ft 460 kts 236°
2026-05-06 06:30 26.92311 123.77670 40027 ft 461 kts 236°
2026-05-06 06:31 26.88183 123.72205 40002 ft 461 kts 236°
2026-05-06 06:31 26.84040 123.66727 40016 ft 461 kts 236°
2026-05-06 06:32 26.79924 123.61295 40020 ft 458 kts 237°
2026-05-06 06:32 26.75797 123.55850 40004 ft 458 kts 237°
2026-05-06 06:33 26.71670 123.50410 40015 ft 458 kts 237°
2026-05-06 06:33 26.67533 123.44968 40023 ft 457 kts 237°
2026-05-06 06:34 26.63415 123.39560 40006 ft 456 kts 237°
2026-05-06 06:34 26.59292 123.34159 40037 ft 456 kts 236°
2026-05-06 06:35 26.55168 123.28758 40018 ft 456 kts 236°
2026-05-06 06:35 26.51293 123.23690 40023 ft 456 kts 237°
2026-05-06 06:36 26.47191 123.18327 40020 ft 455 kts 237°
2026-05-06 06:36 26.43075 123.12953 40015 ft 453 kts 237°
2026-05-06 06:37 26.38989 123.07620 40024 ft 453 kts 237°
2026-05-06 06:37 26.34908 123.02302 40004 ft 451 kts 237°
2026-05-06 06:37 26.32880 122.99663 39633 ft 454 kts 237°
2026-05-06 06:38 26.30810 122.96978 39100 ft 455 kts 238°
2026-05-06 06:38 26.28762 122.94325 38534 ft 455 kts 238°
2026-05-06 06:38 26.26689 122.91635 37956 ft 455 kts 238°
2026-05-06 06:38 26.24654 122.88995 37411 ft 454 kts 238°
2026-05-06 06:39 26.22595 122.86324 36851 ft 454 kts 238°
2026-05-06 06:39 26.20536 122.83652 36266 ft 453 kts 238°
2026-05-06 06:39 26.18505 122.81021 35702 ft 453 kts 237°
2026-05-06 06:39 26.16440 122.78349 35135 ft 453 kts 237°
2026-05-06 06:40 26.14406 122.75718 34578 ft 452 kts 237°
2026-05-06 06:40 26.12357 122.73066 34030 ft 452 kts 237°
2026-05-06 06:40 26.10326 122.70442 33486 ft 451 kts 237°
2026-05-06 06:40 26.08274 122.67793 32935 ft 451 kts 237°
2026-05-06 06:41 26.06219 122.65136 32376 ft 451 kts 237°
2026-05-06 06:41 26.04190 122.62514 31808 ft 453 kts 237°
2026-05-06 06:41 26.02125 122.59846 31226 ft 454 kts 237°
2026-05-06 06:41 26.00084 122.57214 30691 ft 454 kts 236°
2026-05-06 06:42 25.98024 122.54564 30285 ft 451 kts 236°
2026-05-06 06:42 25.95975 122.51932 29842 ft 449 kts 236°
2026-05-06 06:42 25.93943 122.49319 29448 ft 446 kts 236°
2026-05-06 06:42 25.91931 122.46735 29058 ft 443 kts 236°
2026-05-06 06:43 25.89910 122.44142 28672 ft 440 kts 236°
2026-05-06 06:43 25.87933 122.41607 28303 ft 436 kts 236°
2026-05-06 06:43 25.85957 122.39069 27934 ft 432 kts 236°
2026-05-06 06:43 25.84011 122.36573 27574 ft 429 kts 236°
2026-05-06 06:44 25.82035 122.34037 27200 ft 426 kts 235°
2026-05-06 06:44 25.80110 122.31570 26836 ft 424 kts 235°
2026-05-06 06:44 25.78186 122.29103 26479 ft 421 kts 235°
2026-05-06 06:44 25.76261 122.26635 26112 ft 418 kts 235°
2026-05-06 06:45 25.74369 122.24214 25758 ft 416 kts 235°
2026-05-06 06:45 25.72490 122.21811 25410 ft 413 kts 235°
2026-05-06 06:45 25.70609 122.19401 25055 ft 411 kts 235°
2026-05-06 06:45 25.68755 122.17029 24690 ft 408 kts 234°
2026-05-06 06:46 25.66901 122.14662 24323 ft 406 kts 234°
2026-05-06 06:46 25.65059 122.12309 23965 ft 404 kts 234°
2026-05-06 06:46 25.63267 122.09935 23601 ft 399 kts 239°
2026-05-06 06:46 25.61802 122.07368 23234 ft 392 kts 248°
2026-05-06 06:47 25.60715 122.04617 22845 ft 385 kts 256°
2026-05-06 06:47 25.59949 122.01812 22478 ft 381 kts 259°
2026-05-06 06:47 25.59248 121.99010 22120 ft 379 kts 259°
2026-05-06 06:47 25.58554 121.96213 21761 ft 377 kts 259°
2026-05-06 06:48 25.57859 121.93439 21399 ft 376 kts 259°
2026-05-06 06:48 25.57155 121.90643 21037 ft 374 kts 259°
2026-05-06 06:48 25.56454 121.87882 20675 ft 373 kts 258°
2026-05-06 06:48 25.55760 121.85149 20316 ft 371 kts 259°
2026-05-06 06:49 25.55063 121.82423 19957 ft 370 kts 258°
2026-05-06 06:49 25.54367 121.79701 19594 ft 368 kts 258°
2026-05-06 06:49 25.53673 121.76992 19234 ft 366 kts 258°
2026-05-06 06:49 25.52980 121.74288 18872 ft 365 kts 258°
2026-05-06 06:50 25.52282 121.71566 18503 ft 364 kts 258°
2026-05-06 06:50 25.51596 121.68893 18145 ft 363 kts 258°
2026-05-06 06:50 25.50909 121.66222 17780 ft 361 kts 257°
2026-05-06 06:50 25.50225 121.63562 17414 ft 360 kts 257°
2026-05-06 06:51 25.49547 121.60927 17061 ft 359 kts 256°
2026-05-06 06:51 25.48659 121.58347 16707 ft 361 kts 247°
2026-05-06 06:51 25.47364 121.55935 16337 ft 363 kts 237°
2026-05-06 06:51 25.45778 121.53764 15985 ft 363 kts 232°
2026-05-06 06:52 25.44124 121.51658 15623 ft 361 kts 232°
2026-05-06 06:52 25.42480 121.49581 15270 ft 359 kts 232°
2026-05-06 06:52 25.40851 121.47512 14917 ft 357 kts 232°
2026-05-06 06:52 25.39242 121.45460 14558 ft 355 kts 232°
2026-05-06 06:53 25.37634 121.43407 14203 ft 352 kts 231°
2026-05-06 06:53 25.36027 121.41357 13862 ft 350 kts 231°
2026-05-06 06:53 25.34423 121.39316 13496 ft 348 kts 231°
2026-05-06 06:53 25.32861 121.37328 13137 ft 346 kts 231°
2026-05-06 06:54 25.31283 121.35319 12779 ft 343 kts 231°
2026-05-06 06:54 25.29721 121.33327 12447 ft 340 kts 231°
2026-05-06 06:54 25.28194 121.31379 12126 ft 338 kts 230°
2026-05-06 06:54 25.26650 121.29410 11763 ft 336 kts 230°
2026-05-06 06:55 25.25121 121.27462 11420 ft 334 kts 230°
2026-05-06 06:55 25.23610 121.25536 11080 ft 332 kts 230°
2026-05-06 06:55 25.22108 121.23624 10744 ft 330 kts 230°
2026-05-06 06:55 25.20612 121.21720 10407 ft 327 kts 230°
2026-05-06 06:56 25.19137 121.19842 10203 ft 318 kts 230°
2026-05-06 06:56 25.17705 121.18021 10160 ft 305 kts 230°
2026-05-06 06:56 25.16342 121.16286 10112 ft 295 kts 230°
2026-05-06 06:56 25.15023 121.14606 10024 ft 285 kts 230°
2026-05-06 06:57 25.13741 121.12978 10007 ft 273 kts 230°
2026-05-06 06:57 25.12509 121.11414 9882 ft 266 kts 230°
2026-05-06 06:57 25.11308 121.09885 9604 ft 266 kts 230°
2026-05-06 06:57 25.10094 121.08339 9328 ft 266 kts 230°
2026-05-06 06:58 25.08885 121.06799 9066 ft 264 kts 229°
2026-05-06 06:58 25.07676 121.05263 8805 ft 263 kts 229°
2026-05-06 06:58 25.06482 121.03750 8554 ft 262 kts 229°
2026-05-06 06:58 25.05279 121.02225 8290 ft 261 kts 229°
2026-05-06 06:59 25.04088 121.00716 8029 ft 261 kts 229°
2026-05-06 06:59 25.02903 120.99213 7762 ft 260 kts 229°
2026-05-06 06:59 25.01717 120.97710 7510 ft 259 kts 229°
2026-05-06 06:59 25.00537 120.96217 7250 ft 258 kts 230°
2026-05-06 07:00 24.99368 120.94738 6989 ft 258 kts 230°
2026-05-06 07:00 24.98187 120.93240 6719 ft 257 kts 230°
2026-05-06 07:00 24.97021 120.91766 6469 ft 256 kts 230°
2026-05-06 07:00 24.95852 120.90288 6208 ft 256 kts 230°
2026-05-06 07:01 24.94681 120.88810 5947 ft 256 kts 230°
2026-05-06 07:01 24.93414 120.87450 5661 ft 256 kts 212°
2026-05-06 07:01 24.91714 120.86867 5398 ft 259 kts 183°
2026-05-06 07:01 24.89940 120.87253 5138 ft 262 kts 154°
2026-05-06 07:02 24.88548 120.88502 4889 ft 263 kts 126°
2026-05-06 07:02 24.87851 120.90339 4662 ft 263 kts 97°
2026-05-06 07:02 24.88029 120.92313 4430 ft 262 kts 68°
2026-05-06 07:02 24.89037 120.93981 4168 ft 260 kts 43°
2026-05-06 07:03 24.90301 120.95378 3984 ft 256 kts 52°
2026-05-06 07:03 24.91077 120.97077 3959 ft 246 kts 78°
2026-05-06 07:03 24.91168 120.98915 3969 ft 233 kts 91°
2026-05-06 07:03 24.91112 121.00684 3972 ft 232 kts 92°
2026-05-06 07:04 24.91084 121.02459 3960 ft 232 kts 78°
2026-05-06 07:04 24.91661 121.04048 3962 ft 220 kts 55°
2026-05-06 07:04 24.92582 121.05346 3918 ft 210 kts 47°
2026-05-06 07:04 24.93579 121.06533 3695 ft 209 kts 46°
2026-05-06 07:05 24.94553 121.07693 3400 ft 206 kts 47°
2026-05-06 07:05 24.95498 121.08858 3141 ft 198 kts 48°
2026-05-06 07:05 24.96382 121.09972 2915 ft 192 kts 49°
2026-05-06 07:05 24.97246 121.11077 2674 ft 186 kts 49°
2026-05-06 07:06 24.98080 121.12148 2441 ft 182 kts 49°
2026-05-06 07:06 24.98888 121.13184 2214 ft 172 kts 49°
2026-05-06 07:06 24.99642 121.14150 1992 ft 162 kts 49°
2026-05-06 07:06 25.00352 121.15061 1783 ft 152 kts 49°
2026-05-06 07:07 25.01025 121.15916 1592 ft 144 kts 48°
2026-05-06 07:07 25.01673 121.16736 1406 ft 136 kts 49°
2026-05-06 07:07 25.02289 121.17519 1242 ft 136 kts 50°
2026-05-06 07:07 25.02905 121.18310 1076 ft 135 kts 49°
2026-05-06 07:08 25.03519 121.19093 905 ft 135 kts 47°
2026-05-06 07:08 25.04138 121.19878 729 ft 135 kts 48°
2026-05-06 07:08 25.04752 121.20660 549 ft 135 kts 50°
2026-05-06 07:08 25.05372 121.21446 376 ft 135 kts 47°
2026-05-06 07:09 25.05993 121.22236 197 ft 135 kts 48°
2026-05-06 07:09 25.06591 121.22997 125 ft 123 kts 48°
2026-05-06 07:09 25.07044 121.23570 124 ft 74 kts 50°
2026-05-06 07:09 25.07305 121.23902 124 ft 51 kts 49°
2026-05-06 07:10 25.07465 121.24090 124 ft 22 kts 39°
2026-05-06 07:10 25.07596 121.24178 124 ft 21 kts 26°
2026-05-06 07:10 25.07734 121.24239 124 ft 21 kts 19°
2026-05-06 07:10 25.07864 121.24305 124 ft 20 kts 36°
2026-05-06 07:11 25.07961 121.24410 124 ft 18 kts 48°
2026-05-06 07:11 25.08041 121.24463 124 ft 13 kts 347°
2026-05-06 07:11 25.08118 121.24400 124 ft 14 kts 317°
2026-05-06 07:11 25.08193 121.24326 124 ft 14 kts 318°
2026-05-06 07:12 25.08274 121.24249 124 ft 15 kts 319°
2026-05-06 07:12 25.08358 121.24169 124 ft 16 kts 319°
2026-05-06 07:12 25.08445 121.24087 124 ft 16 kts 319°
2026-05-06 07:12 25.08536 121.24002 124 ft 17 kts 319°
2026-05-06 07:13 25.08623 121.23920 124 ft 13 kts 320°
2026-05-06 07:13 25.08669 121.23856 124 ft 10 kts 272°
2026-05-06 07:13 25.08629 121.23780 124 ft 12 kts 229°
2026-05-06 07:13 25.08569 121.23704 124 ft 13 kts 229°
2026-05-06 07:14 25.08504 121.23621 124 ft 14 kts 229°
2026-05-06 07:14 25.08436 121.23534 124 ft 15 kts 229°
2026-05-06 07:14 25.08363 121.23441 124 ft 16 kts 229°
2026-05-06 07:14 25.08337 121.23408 124 ft 16 kts 229°
2026-05-06 07:15 25.08136 121.23153 124 ft 17 kts 229°
2026-05-06 07:15 25.08053 121.23048 124 ft 18 kts 229°
2026-05-06 07:15 25.07984 121.22960 124 ft 11 kts 229°
2026-05-06 07:16 25.07939 121.22917 124 ft 5 kts 185°
2026-05-06 07:16 25.07900 121.22936 124 ft 6 kts 142°
2026-05-06 07:16 25.07867 121.22968 124 ft 4 kts 138°
2026-05-06 07:16 25.07855 121.22980 124 ft 1 kts 139°
2026-05-06 07:17 25.07854 121.22980 124 ft 0 kts 139°